Temp
73 75 80 81 82 82 82 82 82 82 82 82 83 83 83 83 83 83 83 83 83 83 83 83 83 83 83 83 83 83 82 82 82 82 81 82 82 82 82 82 81 82 81
75 77 80 82 82 82 82 82 82 82 82 83 83 83 83 83 83 83 83 84 83 83 83 83 83 83 83 83 83 83 83 83 83 83 83 82 82 81 82 82 81 82 81
74 77 79 82 82 82 82 82 82 83 83 83 83 83 83 83 83 83 84 84 83 84 84 83 83 83 83 83 83 83 83 82 83 84 82 79 80 82 82 82 81 81 81
76 75 77 81 82 83 82 82 83 83 83 83 83 83 83 84 84 84 84 84 83 83 84 84 84 84 83 83 82 82 83 83 83 83 79 79 81 82 82 82 81 81 80
75 76 77 81 82 83 83 83 83 83 83 83 83 83 84 84 84 84 84 84 84 84 84 84 84 84 82 83 83 82 81 82 81 80 78 78 77 82 82 82 81 81 80
76 77 81 83 83 83 83 83 83 83 83 83 83 83 84 84 85 84 84 84 84 84 84 84 84 83 83 83 83 82 83 82 81 78 77 78 78 81 82 82 81 81 81
76 78 80 82 83 83 83 83 83 84 84 83 83 84 84 84 85 84 84 84 84 84 84 84 84 84 84 83 83 83 83 83 79 77 77 77 78 81 81 82 82 82 81
76 77 79 83 83 83 84 83 83 83 84 83 83 84 84 84 84 84 84 84 84 84 84 84 84 84 83 83 83 82 82 83 80 78 78 77 77 81 81 82 82 81 81
77 77 77 79 82 84 84 83 83 83 83 83 83 83 84 84 84 84 84 84 85 85 85 85 85 83 83 83 82 82 82 83 80 77 79 77 78 81 82 82 82 81 81
76 77 77 77 78 77 80 83 84 83 83 83 84 84 84 84 85 85 83 83 84 85 85 84 84 83 83 82 82 83 82 83 78 77 78 77 77 81 83 82 81 82 82
76 75 76 76 76 77 78 80 83 83 84 84 83 84 82 78 79 82 80 83 83 84 83 84 84 83 82 81 81 82 81 77 77 77 77 77 79 82 83 82 82 81 81
73 74 76 76 76 77 79 78 77 78 78 78 78 79 77 77 77 78 81 82 83 84 84 83 83 82 79 78 78 78 78 77 77 77 77 77 80 81 83 82 82 82 81
74 75 75 76 76 76 77 76 76 76 76 76 77 77 76 75 75 76 75 75 76 79 78 78 77 77 77 77 76 76 77 77 78 78 78 78 81 81 82 83 83 82 81
73 75 76 76 76 76 75 76 75 75 75 75 75 76 74 73 73 74 73 75 74 76 76 75 75 75 75 75 75 75 75 77 78 78 77 78 79 82 83 82 83 82 81
73 74 75 75 75 76 75 75 74 74 75 75 75 75 75 73 71 72 74 74 74 74 74 74 73 73 73 74 74 74 75 74 76 78 77 79 80 81 83 82 83 82 82
75 75 76 75 76 75 74 75 74 74 75 75 75 75 75 72 72 72 73 73 73 73 74 73 73 72 72 73 73 74 74 75 74 76 78 77 79 81 81 82 82 82 82
75 76 76 76 76 75 75 73 74 74 74 75 75 76 75 74 72 72 71 72 72 73 73 72 72 72 72 72 72 72 73 73 74 74 77 76 77 79 80 82 82 82 81
76 75 76 80 77 75 75 74 74 74 74 74 75 75 75 75 74 72 71 70 72 72 72 72 70 70 70 70 70 71 71 72 73 74 76 77 76 78 78 80 81 81 82
76 76 76 77 76 75 73 74 74 75 74 74 74 74 75 75 75 73 71 71 72 71 70 70 70 69 69 69 70 72 72 72 72 75 74 74 76 77 79 79 79 80 83
77 77 77 76 75 73 74 73 73 73 74 74 74 73 75 74 75 73 71 71 72 70 70 69 68 69 69 68 70 71 70 71 72 73 74 76 75 76 77 77 77 78 79
77 75 75 74 74 74 73 72 72 72 72 73 73 74 74 74 74 73 72 72 71 70 71 70 69 68 68 68 67 68 69 70 71 72 74 75 75 76 76 76 76 76 77
75 75 74 75 74 75 73 73 73 72 73 74 74 74 75 75 74 73 72 71 71 70 70 70 68 67 68 68 66 63 62 68 70 72 72 73 71 73 74 74 74 75 75
74 74 74 74 75 75 74 72 72 73 73 72 72 73 74 74 74 73 72 72 71 70 69 69 69 68 67 68 68 65 61 61 63 69 70 70 69 68 69 71 73 73 74
75 76 75 75 75 74 73 72 72 71 70 71 71 72 72 73 73 73 72 71 70 69 69 69 70 68 67 66 67 67 67 66 61 61 68 68 69 70 68 69 70 71 72
77 75 75 74 74 73 73 74 73 71 71 69 68 70 70 70 71 72 71 70 70 69 68 68 69 68 67 66 66 65 65 64 64 61 59 64 67 67 68 68 69 70 72
78 76 75 72 73 73 73 73 73 72 69 67 67 67 68 68 68 69 70 70 69 68 68 69 69 68 68 67 67 66 64 62 62 62 60 61 61 66 66 68 68 69 71
MSLP
1015.31 1015.04 1014.66 1014.77 1014.96 1015.12 1015.44 1015.51 1015.66 1016.09 1016.58 1016.70 1016.93 1017.14 1017.18 1017.47 1017.54 1017.50 1017.51 1017.59 1017.65 1017.69 1017.93 1017.99 1017.92 1017.97 1018.06 1018.13 1018.08 1018.12 1018.19 1018.04 1018.09 1018.22 1018.25 1018.29 1018.39 1018.43 1018.50 1018.55 1018.67 1018.63 1018.68
1015.08 1015.09 1014.88 1014.95 1015.32 1015.50 1015.65 1015.78 1016.03 1016.27 1016.52 1016.93 1017.13 1017.26 1017.39 1017.56 1017.66 1017.70 1017.75 1017.72 1017.80 1017.87 1017.97 1018.10 1018.04 1018.22 1018.34 1018.36 1018.38 1018.31 1018.26 1018.24 1018.20 1018.22 1018.32 1018.52 1018.62 1018.55 1018.60 1018.67 1018.74 1018.79 1018.86
1015.43 1015.29 1015.20 1015.18 1015.40 1015.63 1015.85 1015.84 1016.30 1016.62 1016.87 1017.03 1017.25 1017.38 1017.60 1017.58 1017.70 1017.85 1018.04 1018.07 1018.09 1018.23 1018.38 1018.39 1018.34 1018.49 1018.56 1018.61 1018.61 1018.51 1018.39 1018.55 1018.36 1018.22 1018.36 1018.64 1018.68 1018.69 1018.73 1018.77 1018.90 1018.98 1019.09
1015.20 1015.45 1015.49 1015.48 1015.70 1015.87 1016.09 1016.14 1016.34 1016.70 1016.84 1017.13 1017.45 1017.56 1017.82 1017.96 1017.90 1018.12 1018.32 1018.30 1018.43 1018.50 1018.55 1018.52 1018.66 1018.82 1018.85 1018.84 1018.75 1018.72 1018.61 1018.59 1018.49 1018.41 1018.65 1018.74 1018.70 1018.72 1018.85 1018.99 1019.07 1019.20 1019.41
1015.35 1015.41 1015.63 1015.71 1015.93 1016.04 1016.27 1016.38 1016.59 1016.85 1017.12 1017.44 1017.67 1017.93 1018.02 1018.21 1018.28 1018.38 1018.48 1018.51 1018.59 1018.59 1018.58 1018.72 1018.82 1019.02 1019.06 1018.98 1018.91 1018.95 1018.96 1018.70 1018.70 1018.74 1018.86 1019.00 1019.00 1018.80 1019.00 1019.18 1019.30 1019.44 1019.60
1015.40 1015.52 1015.53 1015.79 1016.02 1016.22 1016.49 1016.80 1017.00 1017.17 1017.38 1017.70 1017.92 1018.28 1018.37 1018.47 1018.52 1018.59 1018.72 1018.73 1018.83 1018.75 1018.84 1019.00 1019.04 1019.17 1019.17 1019.11 1019.03 1019.03 1018.93 1018.96 1018.75 1019.02 1019.04 1019.14 1019.09 1019.02 1019.14 1019.30 1019.43 1019.61 1019.73
1015.51 1015.57 1015.72 1015.93 1016.16 1016.50 1016.84 1017.12 1017.22 1017.43 1017.70 1017.95 1018.24 1018.42 1018.52 1018.62 1018.67 1018.75 1018.78 1018.89 1018.91 1018.98 1019.05 1019.14 1019.13 1019.13 1019.12 1019.06 1018.97 1018.92 1018.91 1018.82 1018.95 1019.09 1019.11 1019.28 1019.32 1019.22 1019.20 1019.38 1019.48 1019.69 1019.83
1015.68 1015.79 1015.89 1016.08 1016.35 1016.64 1016.86 1017.12 1017.36 1017.58 1017.88 1018.07 1018.47 1018.54 1018.67 1018.67 1018.73 1018.76 1018.89 1018.96 1018.95 1018.98 1019.09 1019.10 1019.14 1019.10 1019.10 1019.11 1019.04 1018.94 1018.93 1018.86 1018.77 1019.10 1019.13 1019.26 1019.33 1019.30 1019.34 1019.46 1019.57 1019.80 1019.96
1015.72 1015.98 1016.16 1016.23 1016.37 1016.66 1016.97 1017.21 1017.46 1017.68 1018.04 1018.37 1018.48 1018.61 1018.65 1018.70 1018.77 1018.85 1018.92 1019.00 1018.99 1018.94 1019.05 1019.04 1019.03 1018.97 1019.04 1018.97 1019.07 1018.95 1018.95 1018.83 1018.87 1019.00 1019.02 1019.19 1019.27 1019.28 1019.28 1019.42 1019.59 1019.81 1019.97
1015.98 1016.06 1016.23 1016.41 1016.60 1016.97 1017.16 1017.39 1017.58 1017.86 1018.18 1018.35 1018.51 1018.62 1018.68 1018.74 1018.84 1018.89 1019.02 1019.03 1019.01 1018.94 1018.95 1018.85 1018.97 1018.97 1018.94 1019.03 1018.93 1018.88 1018.82 1018.93 1019.00 1019.14 1019.05 1019.02 1019.20 1019.23 1019.26 1019.48 1019.66 1019.78 1019.88
1016.39 1016.43 1016.50 1016.76 1016.96 1017.14 1017.27 1017.50 1017.79 1017.87 1018.25 1018.51 1018.57 1018.64 1018.79 1018.98 1018.97 1019.01 1019.12 1019.07 1019.05 1019.06 1018.98 1019.00 1019.04 1018.97 1018.86 1019.03 1019.04 1018.93 1018.96 1019.05 1018.97 1018.92 1019.01 1018.93 1018.89 1019.01 1019.02 1019.35 1019.58 1019.72 1019.89
1016.45 1016.59 1016.66 1016.71 1016.98 1017.25 1017.33 1017.59 1017.91 1018.10 1018.31 1018.46 1018.58 1018.66 1018.85 1019.07 1019.16 1019.07 1019.10 1019.00 1019.02 1019.11 1018.96 1018.93 1019.05 1019.06 1019.07 1019.24 1019.26 1019.18 1019.16 1019.11 1018.91 1018.76 1018.77 1018.62 1018.60 1018.74 1018.93 1019.17 1019.48 1019.70 1019.78
1016.23 1016.48 1016.69 1016.77 1017.05 1017.33 1017.51 1017.59 1017.91 1018.13 1018.27 1018.46 1018.65 1018.84 1019.02 1019.28 1019.34 1019.30 1019.37 1019.31 1019.25 1019.11 1019.29 1019.26 1019.36 1019.38 1019.36 1019.30 1019.31 1019.24 1019.16 1019.09 1018.89 1018.65 1018.56 1018.51 1018.50 1018.48 1018.67 1018.94 1019.14 1019.55 1019.74
1016.18 1016.34 1016.52 1016.64 1016.88 1017.20 1017.48 1017.63 1017.90 1018.09 1018.29 1018.46 1018.64 1018.89 1019.13 1019.32 1019.51 1019.38 1019.36 1019.33 1019.39 1019.42 1019.52 1019.57 1019.67 1019.66 1019.62 1019.55 1019.42 1019.42 1019.13 1018.97 1018.78 1018.60 1018.34 1018.17 1018.24 1018.30 1018.37 1018.65 1018.87 1019.30 1019.62
1016.06 1016.25 1016.37 1016.61 1016.84 1017.09 1017.49 1017.62 1017.88 1018.07 1018.18 1018.39 1018.59 1018.72 1019.02 1019.16 1019.42 1019.56 1019.44 1019.43 1019.49 1019.56 1019.62 1019.74 1019.88 1019.90 1019.85 1019.61 1019.42 1019.33 1019.19 1019.07 1018.79 1018.51 1018.31 1018.12 1017.96 1018.08 1018.21 1018.20 1018.44 1018.86 1019.32
1015.78 1016.06 1016.26 1016.50 1016.60 1016.91 1017.22 1017.56 1017.74 1017.87 1018.00 1018.20 1018.31 1018.46 1018.69 1019.02 1019.19 1019.34 1019.44 1019.49 1019.54 1019.62 1019.69 1019.80 1019.87 1019.86 1019.84 1019.80 1019.57 1019.35 1019.16 1018.94 1018.78 1018.56 1018.22 1018.01 1017.87 1017.86 1017.94 1018.02 1018.23 1018.40 1018.75
1015.20 1015.50 1015.81 1016.11 1016.36 1016.70 1016.92 1017.26 1017.46 1017.52 1017.75 1017.88 1017.95 1018.13 1018.34 1018.61 1018.91 1019.05 1019.36 1019.44 1019.53 1019.67 1019.71 1019.80 1019.81 1019.88 1019.83 1019.70 1019.55 1019.19 1018.99 1018.95 1018.67 1018.42 1018.25 1018.09 1017.95 1017.79 1017.77 1017.76 1017.92 1018.10 1018.24
1014.86 1015.23 1015.48 1015.86 1016.19 1016.44 1016.65 1016.81 1016.99 1017.21 1017.46 1017.56 1017.62 1017.78 1017.98 1018.16 1018.39 1018.87 1019.11 1019.43 1019.52 1019.55 1019.63 1019.68 1019.86 1019.89 1019.85 1019.82 1019.71 1019.38 1019.00 1018.66 1018.62 1018.34 1018.08 1017.97 1017.93 1017.81 1017.56 1017.50 1017.59 1017.74 1017.86
1014.47 1014.82 1015.19 1015.50 1015.74 1016.13 1016.43 1016.50 1016.68 1016.86 1017.11 1017.33 1017.55 1017.68 1017.77 1017.98 1018.23 1018.60 1018.90 1019.16 1019.27 1019.47 1019.59 1019.75 1019.87 1019.97 1019.90 1019.77 1019.58 1019.26 1019.01 1018.84 1018.48 1018.19 1018.05 1017.92 1017.78 1017.64 1017.45 1017.29 1017.25 1017.32 1017.39
1014.04 1014.53 1014.87 1015.22 1015.49 1015.74 1016.09 1016.44 1016.69 1016.97 1017.16 1017.34 1017.43 1017.62 1017.76 1017.94 1018.09 1018.34 1018.72 1018.98 1019.11 1019.32 1019.57 1019.67 1019.92 1020.04 1020.02 1019.95 1019.63 1019.18 1018.90 1018.71 1018.44 1018.23 1018.07 1017.91 1017.78 1017.52 1017.31 1017.20 1017.12 1017.13 1017.09
1013.61 1014.20 1014.64 1015.08 1015.30 1015.72 1016.11 1016.52 1016.93 1017.12 1017.27 1017.36 1017.36 1017.44 1017.54 1017.74 1017.95 1018.16 1018.47 1018.73 1018.98 1019.24 1019.32 1019.52 1019.81 1019.99 1019.92 1019.93 1019.70 1019.20 1018.91 1018.77 1018.63 1018.42 1018.25 1018.04 1017.94 1017.72 1017.46 1017.28 1017.21 1017.16 1017.08
1013.08 1013.54 1014.22 1014.60 1014.94 1015.16 1015.52 1016.00 1016.41 1016.79 1016.98 1016.99 1017.03 1017.18 1017.28 1017.45 1017.69 1017.91 1018.22 1018.65 1018.82 1019.12 1019.32 1019.48 1019.58 1019.74 1019.92 1019.87 1019.98 1020.09 1019.69 1019.10 1018.82 1018.68 1018.51 1018.44 1018.29 1018.03 1017.81 1017.66 1017.54 1017.40 1017.28
1012.78 1013.12 1013.52 1013.94 1014.22 1014.63 1015.17 1015.79 1016.38 1016.70 1016.82 1016.94 1017.04 1017.05 1016.99 1017.27 1017.55 1017.80 1018.13 1018.39 1018.61 1018.86 1019.15 1019.31 1019.43 1019.69 1019.79 1019.80 1019.95 1020.00 1020.06 1020.02 1019.69 1018.94 1018.80 1018.73 1018.58 1018.45 1018.19 1017.97 1017.82 1017.68 1017.48
1011.98 1012.49 1012.94 1013.33 1013.63 1014.23 1014.82 1015.41 1015.77 1016.18 1016.61 1016.59 1016.70 1016.75 1016.82 1016.92 1017.23 1017.58 1017.92 1018.30 1018.57 1018.82 1019.08 1019.14 1019.22 1019.51 1019.75 1019.91 1020.02 1020.01 1020.04 1020.18 1020.25 1019.82 1019.12 1018.92 1018.80 1018.60 1018.46 1018.19 1018.01 1017.86 1017.74
1011.32 1011.94 1012.42 1012.84 1013.21 1013.76 1014.41 1014.86 1015.31 1015.84 1016.14 1016.50 1016.71 1016.84 1016.90 1017.08 1017.20 1017.44 1017.73 1018.00 1018.36 1018.67 1018.92 1019.01 1019.11 1019.38 1019.65 1019.83 1019.96 1019.96 1020.01 1020.22 1020.40 1020.41 1020.00 1019.34 1018.96 1018.79 1018.51 1018.30 1018.19 1018.07 1017.92
1010.76 1011.35 1011.85 1012.36 1012.71 1013.24 1013.84 1014.33 1014.72 1015.26 1015.93 1016.55 1016.81 1016.97 1017.04 1017.23 1017.42 1017.51 1017.71 1017.90 1018.08 1018.41 1018.65 1018.73 1018.94 1019.18 1019.38 1019.57 1019.64 1019.76 1019.87 1020.06 1020.17 1020.27 1020.18 1019.76 1019.53 1018.93 1018.67 1018.38 1018.18 1018.06 1017.93
Wind_Speed
2 3 14 17 18 17 15 15 17 15 15 16 15 14 14 12 11 11 10 11 10 10 9 10 9 10 9 8 8 7 7 8 9 9 8 10 8 7 8 9 7 6 9
4 3 11 14 14 13 12 13 15 15 15 14 15 14 13 12 11 10 9 10 10 9 9 9 9 9 7 7 5 5 5 6 7 8 9 7 5 2 7 7 7 8 8
6 4 6 12 12 11 12 13 14 15 16 15 14 13 13 12 11 10 9 9 8 6 6 7 7 7 5 4 4 3 3 4 5 6 7 3 2 7 7 8 8 9 8
6 4 4 9 11 13 14 15 16 17 16 14 13 13 12 11 11 9 9 8 7 5 5 5 5 4 3 3 2 2 2 1 3 4 3 3 1 7 7 8 9 10 10
5 5 6 12 14 16 15 16 16 16 15 13 12 11 11 10 10 8 7 7 6 5 4 3 3 3 2 2 3 4 2 1 1 3 2 2 1 6 7 6 8 9 9
6 5 10 14 16 15 15 15 15 15 13 11 10 10 9 9 9 7 6 5 4 3 2 2 3 3 3 4 5 5 4 1 1 3 0 2 2 4 6 5 7 10 9
5 6 8 13 14 14 14 14 13 12 11 9 9 9 9 8 7 6 4 3 2 0 2 2 4 5 6 5 6 6 4 4 2 2 1 2 2 4 7 7 8 10 9
6 5 6 13 14 14 14 13 11 11 11 10 10 10 9 8 7 5 4 2 1 2 4 4 5 6 6 6 6 5 4 5 1 1 2 2 4 6 6 8 8 7 11
5 5 5 5 9 13 12 12 12 12 12 12 10 9 8 6 5 4 4 3 3 4 5 6 6 6 6 5 6 5 5 6 2 2 2 2 6 7 6 9 9 10 9
5 5 4 5 5 5 5 12 12 11 11 11 9 8 6 6 5 5 3 5 5 6 7 7 6 6 5 4 4 3 2 3 3 2 2 3 9 10 9 9 10 11 10
5 5 4 5 4 5 5 5 9 10 10 9 7 6 4 1 2 3 1 5 6 6 7 8 5 6 8 7 8 9 8 2 2 3 2 7 9 12 11 10 10 10 12
7 6 5 5 5 4 3 3 4 4 3 4 4 4 2 1 1 3 5 6 6 6 5 6 4 8 7 3 3 5 3 4 3 3 2 10 9 12 12 11 11 11 12
8 6 7 5 5 5 3 3 2 2 2 3 4 3 1 1 1 1 1 1 1 4 2 4 4 4 4 4 4 4 4 5 3 3 4 9 11 12 13 14 12 12 11
8 8 5 6 5 5 3 3 3 3 2 2 3 4 2 1 1 2 1 0 2 1 1 3 2 3 4 5 5 5 5 4 4 4 5 10 11 11 13 12 12 14 14
9 9 7 6 6 6 5 3 3 3 3 3 3 4 3 3 3 2 2 1 0 0 2 2 2 2 4 5 5 5 5 6 6 3 3 10 10 10 13 14 13 14 15
10 10 7 8 8 6 5 5 4 3 4 4 4 4 6 4 3 3 2 2 2 0 1 1 2 3 3 4 6 5 5 5 6 6 4 4 10 10 13 14 13 15 17
11 11 11 10 8 9 8 5 4 5 4 4 5 5 6 4 5 4 3 2 1 1 1 2 2 2 3 3 4 5 5 5 6 6 5 3 5 9 12 12 13 13 16
9 11 10 9 9 8 7 5 4 4 4 5 5 4 5 5 5 4 3 3 3 2 1 1 1 3 2 2 3 5 5 5 5 6 5 5 4 4 8 11 12 13 14
12 11 10 9 9 8 5 4 5 5 3 3 2 3 4 4 3 3 3 3 3 1 2 1 0 1 2 4 4 5 5 5 5 4 6 6 6 5 5 8 10 13 15
11 10 10 8 7 7 5 3 1 0 1 2 3 2 4 3 4 3 2 4 3 2 2 1 2 1 2 4 5 6 5 3 3 3 3 4 4 5 5 5 4 5 10
11 9 9 8 8 6 3 3 2 3 2 2 3 5 4 3 3 4 3 3 3 3 2 2 1 1 1 1 2 4 2 2 2 3 3 4 8 7 6 5 3 3 4
13 12 10 11 8 8 4 3 3 3 2 2 2 4 4 4 4 4 3 3 4 2 2 2 3 1 1 0 0 0 3 3 2 4 3 4 8 6 7 7 7 7 6
12 12 12 12 12 8 6 4 3 2 1 2 2 2 3 5 5 5 4 3 2 1 2 1 1 3 1 0 1 1 0 1 3 2 3 3 6 4 5 6 7 7 7
13 11 12 13 13 8 9 7 6 4 4 3 3 2 3 6 5 5 4 3 3 2 2 2 1 2 2 1 0 1 0 1 1 3 2 3 6 6 6 5 6 7 7
13 11 11 11 10 9 10 9 8 4 3 2 1 3 4 3 4 4 5 5 4 3 3 3 2 3 2 2 1 1 0 1 1 1 3 4 2 3 3 4 4 5 6
12 12 11 11 12 10 10 11 11 10 6 4 3 3 3 2 2 4 5 4 4 4 4 3 2 3 3 2 2 2 3 2 2 2 2 2 3 3 3 4 3 3 4
Wind_Direction
228 205 142 133 140 145 144 140 137 130 126 125 128 129 127 122 119 113 110 113 111 112 109 100 95 88 80 84 82 75 88 103 105 106 99 91 91 86 84 91 101 114 121
157 226 148 140 140 141 143 143 136 135 126 128 135 136 136 135 132 128 119 121 120 126 123 117 103 91 84 77 73 86 94 111 118 116 113 111 85 117 95 98 116 125 110
154 182 168 149 147 150 148 140 142 135 135 136 141 144 148 144 143 142 132 127 123 121 116 106 96 96 93 78 57 58 101 119 134 133 116 99 84 84 121 100 105 116 119
142 148 159 152 156 150 149 146 143 150 149 143 148 149 149 150 142 143 135 125 126 133 122 96 91 86 87 72 31 24 11 116 110 119 106 110 52 95 103 111 116 111 120
123 141 171 159 157 154 153 148 152 156 155 153 147 151 149 145 139 136 133 139 146 143 113 103 87 65 36 33 343 346 337 338 221 85 114 94 15 116 114 127 130 129 123
138 155 159 158 157 154 153 152 153 156 151 147 145 152 151 146 144 137 142 139 132 108 103 48 39 17 8 350 332 332 330 272 298 5 22 241 123 140 143 147 155 142 144
145 147 153 158 154 156 153 152 145 143 143 146 152 160 158 158 147 141 143 130 112 63 325 341 337 343 334 324 321 324 324 267 16 343 242 222 192 189 172 165 157 157 149
141 132 146 152 153 153 154 146 142 150 154 156 160 163 164 160 151 150 162 179 227 286 299 326 330 329 322 314 315 318 302 290 297 256 234 211 218 201 182 179 161 155 167
127 119 133 137 153 152 154 155 155 161 162 164 166 161 157 157 163 184 218 242 266 283 297 316 322 323 318 305 318 327 315 300 279 261 259 229 232 208 184 174 177 170 172
135 126 131 130 130 131 150 168 169 168 167 169 165 156 166 181 201 226 248 292 284 280 289 302 313 324 313 316 304 334 332 320 312 271 254 217 235 206 195 200 190 179 187
160 159 153 145 134 142 144 183 178 181 182 185 187 187 195 164 303 276 270 261 278 291 318 329 334 346 9 20 13 21 15 332 302 289 244 240 257 206 200 202 197 202 186
182 183 185 160 161 151 160 186 164 183 181 187 195 208 181 156 271 253 296 262 273 287 346 358 358 28 20 12 348 350 349 331 314 292 268 272 240 215 209 197 202 208 198
185 179 178 173 168 166 180 194 170 189 179 185 196 200 187 63 317 335 330 353 12 353 31 21 22 24 11 0 353 337 333 318 303 301 278 279 262 223 218 203 206 208 220
184 194 182 170 166 184 183 198 189 186 190 197 199 194 190 202 266 255 257 186 39 14 64 41 25 1 351 340 335 330 328 318 311 307 285 292 270 237 231 224 210 205 215
181 193 196 171 188 196 199 210 191 207 189 200 198 202 188 205 224 286 264 294 326 15 22 21 20 354 336 332 326 322 321 316 312 313 299 291 282 239 235 240 223 211 211
183 192 188 194 196 189 198 201 215 191 206 201 200 209 202 195 208 218 246 242 243 272 336 341 337 333 329 326 319 324 319 313 311 306 306 297 296 277 241 244 239 218 210
191 190 195 197 195 198 204 207 192 211 187 210 213 205 209 207 199 203 209 236 248 258 274 308 313 312 310 319 310 319 315 309 309 313 317 308 300 295 291 254 235 232 222
189 192 195 198 198 201 195 200 199 215 215 224 221 211 214 213 198 187 198 220 229 223 250 280 314 309 316 328 318 309 308 310 309 311 312 316 316 310 302 296 253 236 235
193 197 196 192 194 188 200 195 202 204 203 219 227 209 203 205 202 178 200 203 208 230 251 235 298 271 308 321 317 304 304 313 316 307 306 314 312 295 285 287 287 258 248
194 199 203 192 187 182 194 172 173 91 204 198 212 212 194 214 217 194 187 206 194 204 224 203 231 267 276 302 309 308 317 324 311 340 346 357 348 335 304 285 287 301 286
192 182 189 182 196 176 169 146 146 194 189 214 206 205 192 186 183 170 166 169 168 192 223 206 201 260 303 345 329 328 335 351 18 27 17 35 19 9 19 0 334 311 310
188 189 183 196 189 197 168 148 149 160 187 185 188 206 204 203 179 174 157 170 186 194 228 234 200 149 282 1 86 27 355 336 2 12 38 35 14 10 16 12 13 3 351
193 191 189 193 202 195 163 122 110 101 105 153 194 190 198 178 178 163 177 183 182 185 241 253 190 173 221 272 117 163 34 315 331 335 2 13 4 3 2 4 9 4 2
202 195 194 195 205 188 168 174 165 170 180 208 193 196 185 180 170 169 167 168 189 178 206 230 185 172 164 205 330 162 113 126 323 324 333 330 347 5 359 1 8 12 18
196 191 195 201 201 180 180 188 186 179 188 176 197 201 180 173 177 181 183 172 178 182 216 214 199 189 189 166 185 180 48 56 124 161 280 312 336 332 351 0 9 13 19
192 189 192 195 203 180 180 186 186 189 184 185 192 186 175 169 187 212 197 190 180 183 204 214 226 218 204 195 192 187 179 179 200 214 267 281 280 298 322 333 347 1 359